STARLINK-32558, 62169

Orbit data source: Space-Track

STARLINK-32558, 62169 is a payload satellite owned by SpaceX/Seattle (US) in LEO that was launched on Sat, 30 Nov 2024 UTC via an FALCON 9 launch vehicle from the Air Force Western Test Range (AFWTR). Payload-class satellites include a variety of spacecraft equipped with specific instruments for various scientific and technological missions. These include communications satellites like Starlink; space stations such as the ISS; scientific satellites like the Hubble; Earth observation satellites from companies like Planet Labs, Umbra, and HawkEye 360; GPS; miniature CubeSats for education and research; and military/defense satellites.

Loading next visibility...
Identifier
62169, 2024-225G
Orbit
LEO
Country
Flag of USUS
Related business
Manufacturer
SpaceX/Seattle
Mission
Operational Commercial Communications
Bus & Motor
STARLINK V2M, Unknown motor
Mass
730 kg wet, ~700 kg dry
Launch date (UTC)
2024-11-30 (1 year ago)
Launch vehicle
FALCON 9
Launch site
Air Force Western Test Range (AFWTR)
Object type
Payload
Rocket body
Debris
Shape & HBR
Box + 2 Pan, 17.7 m
Radar Cross Section
33.884 m², Large (>1 m²)

Expand to show TLE details & history
Last TLE update: 12 hours ago

TLE from 12 hours ago
0 STARLINK-32558
1 62169U 24225G   26062.74804468 -.00009104  00000-0 -75688-3 0  9999
2 62169  70.0058 179.4893 0003697 291.8267  68.2499 14.98293085 68985
Epoch: 2026-03-03T17:57Z
TLE epoch observation values (Epoch: 2026-03-03T17:57:11.060Z)
Latitude
0.00002°
Longitude
108.67057°
Altitude
573.643 km
Speed
7.575 km/s
True Right ascension
11h 57m 57s
True Declination
0° 00' 00"
Sunlit
Object was in full shadow at epoch
Visualization orbit readout
Latitude
Unknown
Longitude
Unknown
Altitude
Unknown
Speed
Unknown
Apparent Right ascension
Unknown
Apparent Declination
Unknown
Sunlit
N/A
Visualization observer readout
Local Sidereal Time
10:02:42
Azimuth
Unknown
Elevation
Unknown
Doppler factor
Unknown
Orbital elements
Apogee altitude
572.686 km
Perigee altitude
567.549 km
Semi-major axis
6,948.255 km
Eccentricity
0.00037
Inclination
70.0058°
RAAN
179.4893°
Arg. of periapsis
291.8267°
True anomaly
68.28926°
Mean anomaly
68.2499°
Eccentric anomaly
68.26958°
Mean motion
3.7474 °/min
Orbital period
96.07 mins
BSTAR
-0.00075688
Loading maneuver chart data...
Computing Atmospheric mass density...
Loading historical data...
Loading historical data...
Loading historical data...
Loading historical data...
Loading historical data...
Loading historical data...
Loading historical data...

Documentation

Showing up to 5 results
|